Location: Atherton
(17.2661°S, 145.4859°E)
Time: 03:31:03
(UTC+10:00)

Hubble Space Telescope - Visible Passes

Search period start: 20 May 2025 00:00
Search period end: 30 May 2025 00:00
Orbit: 489 x 493 km, 28.5° (Epoch: 18 May)

Date Brightness Start Highest point End Pass type
(mag) Time Alt. Az. Time Alt. Az. Time Alt. Az.
20 May 2.6 18:24:07 10° SW 18:26:31 16° S 18:28:56 10° SE visible
21 May 2.8 19:37:33 10° SW 19:38:53 18° SSW 19:38:53 18° SSW visible
22 May 1.7 19:11:16 10° SW 19:14:21 29° S 19:14:21 29° S visible
23 May 1.6 18:44:57 10° SW 18:48:26 31° SSE 18:49:54 23° ESE visible
24 May 1.5 18:18:38 10° SW 18:22:09 32° SSE 18:25:35 10° E visible
24 May 3.0 19:58:30 10° WSW 19:59:58 21° W 19:59:58 21° W visible
25 May 1.3 19:32:13 10° WSW 19:35:49 51° NW 19:35:49 51° NW visible
26 May 1.4 19:05:55 10° WSW 19:09:39 48° NNW 19:11:49 22° NE visible
27 May 1.6 18:39:35 10° W 18:43:18 45° NNW 18:47:00 10° NE visible
28 May 1.9 18:13:16 10° W 18:16:56 41° NNW 18:20:35 10° NE visible
